Estación de El Tambo INIA

Ultimos registro cada 15 minutos 45
Estación Fecha / Hora Temperatura Humedad Lluvia Velocidad Dirección Radiación Presion
45 El Tambo INIA 09-05-2026 11:00 12,2 66,8 0 1,9 86 458 988
44 El Tambo INIA 09-05-2026 10:45 11,8 69,5 0 1,6 117 431 988
43 El Tambo INIA 09-05-2026 10:30 11,4 72,1 0 1,9 99 403 988
42 El Tambo INIA 09-05-2026 10:15 11 71,6 0 2,1 97 371 988
41 El Tambo INIA 09-05-2026 10:00 10,6 73,8 0 2,4 84 338 988
40 El Tambo INIA 09-05-2026 09:45 10 77,1 0 2,6 85 270 988
39 El Tambo INIA 09-05-2026 09:30 9,5 78,5 0 2,7 63 184 988
38 El Tambo INIA 09-05-2026 09:15 9,6 79,8 0 2,9 73 193 988
37 El Tambo INIA 09-05-2026 09:00 9,5 80,2 0 2,6 87 158 988
36 El Tambo INIA 09-05-2026 08:45 9,4 80,9 0 2,5 100 123 988
35 El Tambo INIA 09-05-2026 08:30 9,4 82,7 0 2,6 98 105 988
34 El Tambo INIA 09-05-2026 08:15 9,2 83,9 0 2,4 95 69 988
33 El Tambo INIA 09-05-2026 08:00 9 85,9 0 2,9 86 17 988
32 El Tambo INIA 09-05-2026 07:45 9 86,6 0 2,6 80 4 988
31 El Tambo INIA 09-05-2026 07:30 8,9 86,9 0 2,5 87 2 988
30 El Tambo INIA 09-05-2026 07:15 9 88,5 0 2,4 89 0 988
29 El Tambo INIA 09-05-2026 07:00 9 88,9 0 2,1 98 0 988
28 El Tambo INIA 09-05-2026 06:45 9 89,2 0 1,8 102 0 988
27 El Tambo INIA 09-05-2026 06:30 8,9 89,6 0 1,7 100 0 988
26 El Tambo INIA 09-05-2026 06:15 8,6 93,6 0 0,6 110 0 988
25 El Tambo INIA 09-05-2026 06:00 8,5 95,8 0 0 129 0 988
24 El Tambo INIA 09-05-2026 05:45 8,4 96,2 0 0,2 112 0 988
23 El Tambo INIA 09-05-2026 05:30 8,8 95,3 0 0,4 194 0 988
22 El Tambo INIA 09-05-2026 05:15 8,6 95,9 0 0,6 146 0 988
21 El Tambo INIA 09-05-2026 05:00 8,5 96,6 0 0,6 193 0 988
20 El Tambo INIA 09-05-2026 04:45 7,9 98,5 0 0,3 311 0 988
19 El Tambo INIA 09-05-2026 04:30 7,4 98,2 0 0,2 297 0 988
18 El Tambo INIA 09-05-2026 04:15 7,5 96,9 0 0,3 205 0 988
17 El Tambo INIA 09-05-2026 04:00 7,7 96,6 0 0,3 163 0 988
16 El Tambo INIA 09-05-2026 03:45 9,3 93,1 0 1,1 150 0 988
15 El Tambo INIA 09-05-2026 03:30 9,2 91,7 0 2,1 126 0 988
14 El Tambo INIA 09-05-2026 03:15 7,6 99,6 0 0,2 53 0 988
13 El Tambo INIA 09-05-2026 03:00 8,1 96,8 0 0,5 170 0 989
12 El Tambo INIA 09-05-2026 02:45 7,9 98,8 0 0,3 182 0 989
11 El Tambo INIA 09-05-2026 02:30 8,4 95,9 0 0,7 199 0 989
10 El Tambo INIA 09-05-2026 02:15 9,3 90,2 0 1,1 147 0 989
9 El Tambo INIA 09-05-2026 02:00 9,1 92,4 0 0,8 164 0 989
8 El Tambo INIA 09-05-2026 01:45 9 92,6 0 0,7 176 0 989
7 El Tambo INIA 09-05-2026 01:30 8,9 91,6 0 0,5 148 0 989
6 El Tambo INIA 09-05-2026 01:15 9,6 92,8 0 1,4 150 0 988
5 El Tambo INIA 09-05-2026 01:00 9,9 91,4 0 2,8 112 0 988
4 El Tambo INIA 09-05-2026 00:45 9,2 93,4 0 1,7 129 0 988
3 El Tambo INIA 09-05-2026 00:30 9,9 89,9 0 0,6 134 0 989
2 El Tambo INIA 09-05-2026 00:15 10,1 91,2 0 1,4 127 0 989
1 El Tambo INIA 09-05-2026 00:00 9,6 91,9 0 0,9 115 0 989